Wind_Speed
11 14 16 18 19 19 18 19 20 19 19 19 20 19 18 17 17 16 16 15 15 14 14 14 14 14 15 15 15 16 16 16 16 16 17 18 19 18 19 20 21 21 20
14 15 15 15 16 16 15 15 16 16 17 18 19 19 17 16 15 15 15 15 15 15 15 16 16 16 16 17 17 18 18 18 19 19 19 20 21 21 21 22 23 23 22
15 15 14 13 12 11 10 10 11 12 13 15 17 17 16 16 15 15 15 15 15 16 17 17 17 17 17 18 19 19 20 21 22 22 22 22 22 23 24 24 24 24 23
14 15 14 13 11 10 9 9 9 9 10 12 14 15 16 17 16 16 16 17 17 18 18 18 18 18 18 19 19 20 21 23 24 24 23 23 22 24 25 26 26 26 26
11 13 15 14 13 12 10 10 10 11 11 12 13 14 15 16 17 17 18 17 18 18 19 19 19 20 20 20 20 20 21 23 24 25 24 23 24 26 28 28 28 28 29
8 10 12 15 16 14 12 11 11 12 13 13 13 13 13 14 14 15 14 14 14 14 15 16 17 18 19 19 20 21 22 24 26 27 26 25 27 28 29 29 29 30 30
7 8 9 11 13 14 12 11 12 13 13 13 14 14 13 13 13 12 12 12 12 12 13 14 15 17 18 19 20 21 22 24 26 26 25 24 26 28 28 28 29 29 30
7 7 8 9 9 10 11 12 12 13 14 14 14 14 13 13 12 12 13 13 14 14 16 17 17 18 18 19 20 21 22 24 26 26 24 23 25 26 26 27 27 28 28
7 7 7 8 9 9 11 12 14 15 16 16 15 14 13 13 13 13 15 16 18 18 19 20 20 20 21 21 22 23 24 25 26 27 23 22 26 26 25 26 27 28 29
8 9 10 10 10 9 9 12 14 16 17 16 15 14 14 15 15 16 18 19 21 21 21 21 22 23 23 23 24 24 24 25 26 28 23 23 26 26 27 27 28 29 29
9 9 10 11 11 11 9 10 13 15 16 15 15 15 16 17 17 17 18 19 21 21 21 21 21 21 21 21 22 22 23 24 26 28 24 25 27 28 29 29 29 30 31
11 10 10 11 13 13 11 11 11 13 14 14 16 17 17 17 17 17 18 19 19 19 20 21 21 20 19 19 20 21 21 24 27 28 25 25 26 27 29 30 31 32 33
14 13 13 12 13 15 13 13 12 12 13 14 15 16 17 17 17 17 17 18 18 17 19 20 20 19 19 19 21 22 22 24 28 29 26 25 27 29 32 34 35 36 37
18 16 15 16 15 16 16 16 15 13 14 14 14 15 16 16 16 17 16 17 18 17 17 18 18 18 19 21 21 22 23 25 28 30 29 28 29 31 34 37 39 40 41
20 19 19 18 18 18 18 17 16 15 15 14 14 15 16 16 17 17 18 19 19 18 17 18 20 20 21 23 24 25 26 28 30 33 33 33 34 35 37 39 42 45 47
22 21 20 19 19 18 18 18 17 17 16 14 15 16 17 18 19 18 19 20 20 20 20 21 22 23 24 25 26 27 29 31 33 35 37 37 39 40 43 45 47 50 52
23 22 22 20 19 19 19 20 20 20 20 19 19 19 21 21 22 22 21 21 23 24 24 26 27 27 28 29 30 32 34 36 37 39 41 42 44 45 47 49 51 54 55
24 24 24 23 21 21 21 22 22 22 22 21 21 22 24 24 24 25 24 24 26 27 28 30 32 33 34 36 38 39 40 42 43 45 46 48 50 52 53 54 56 58 60
24 24 26 25 24 24 24 23 23 23 22 22 23 25 27 27 28 28 28 29 31 32 33 35 36 38 40 41 43 45 47 48 50 52 54 55 57 58 59 60 62 63 65
26 26 28 29 29 29 28 27 27 26 25 25 25 27 29 30 31 32 32 35 37 38 39 41 42 45 46 48 49 50 52 55 57 59 61 62 63 64 64 65 66 67 69
28 29 30 31 33 34 34 34 33 32 30 30 30 30 32 33 34 34 36 38 41 44 45 46 48 50 51 53 55 55 57 59 62 64 65 66 67 67 67 68 68 69 71
31 32 34 35 37 39 40 40 39 38 37 36 36 36 36 36 36 37 39 41 44 47 48 50 52 53 54 55 57 58 58 60 62 64 66 67 68 69 70 70 71 72 72
33 33 36 37 38 40 42 44 44 44 43 42 42 41 40 39 39 40 42 44 47 49 50 51 52 53 54 55 57 58 58 59 60 64 66 68 69 70 71 72 73 72 68
35 34 36 38 39 41 44 45 46 47 47 47 47 46 44 43 42 42 43 45 48 49 49 51 50 51 53 54 56 58 60 61 62 64 65 66 67 68 70 71 69 65 61
36 33 35 38 41 43 45 47 48 49 50 51 51 50 47 44 44 44 45 47 48 48 48 49 51 53 56 58 60 61 63 63 64 64 64 66 68 69 70 68 63 59 57
34 34 36 39 42 44 45 47 49 50 51 52 52 50 48 45 46 47 47 46 46 47 48 50 53 55 57 60 62 63 63 63 64 65 66 68 70 70 69 66 61 58 57
Wind_Direction
275 265 262 263 264 265 264 260 256 252 248 245 245 248 251 250 247 246 247 249 251 251 251 251 251 254 258 261 262 262 263 263 261 258 257 256 257 262 264 266 267 270 276
275 270 267 266 264 262 259 256 254 252 247 245 246 248 250 249 247 246 247 250 252 252 251 249 249 251 255 258 262 264 264 264 263 260 258 258 258 260 262 265 267 269 271
268 267 268 267 259 253 251 252 254 255 253 250 250 250 251 250 247 246 249 251 253 254 254 253 254 256 257 259 262 263 263 262 262 261 260 260 261 262 262 263 265 268 270
269 267 265 259 249 244 248 256 261 261 259 255 253 251 251 251 250 253 255 256 256 256 257 257 259 259 259 260 261 261 261 261 262 263 262 262 262 261 262 262 265 267 269
281 273 266 258 251 248 250 258 263 261 259 258 255 252 251 252 255 257 258 258 258 259 260 262 263 263 262 262 261 260 261 263 264 265 265 265 265 265 265 265 266 268 270
322 300 284 270 262 257 254 257 256 256 255 254 253 254 257 259 259 258 258 259 260 261 264 266 267 265 263 261 260 261 263 265 267 268 271 273 272 271 269 269 270 272 274
346 334 323 297 275 260 250 246 246 245 244 247 250 257 260 262 260 257 257 259 263 267 271 271 268 266 264 264 265 268 270 271 272 271 274 275 274 276 275 275 276 278 279
350 346 348 332 303 268 251 245 242 241 245 250 252 258 257 258 261 262 263 265 270 273 275 274 272 270 269 271 272 274 275 276 277 277 276 277 277 278 280 280 281 282 283
337 338 348 346 332 296 268 254 249 249 253 257 262 263 262 261 263 268 270 274 278 279 277 275 273 272 272 273 274 275 275 276 277 277 278 282 281 282 282 283 283 283 284
328 334 339 342 339 325 296 272 264 260 260 264 269 268 268 270 271 273 275 277 278 278 276 272 271 270 271 272 273 273 273 273 274 273 276 278 278 279 280 280 280 280 281
320 328 332 334 333 327 313 296 283 274 270 269 272 276 278 279 279 278 279 279 277 276 273 270 270 270 270 270 271 271 273 274 274 274 275 272 272 273 274 275 276 277 278
324 325 324 326 327 323 315 310 299 287 278 273 276 279 281 282 282 283 284 284 281 278 274 271 270 268 265 266 267 269 272 275 275 275 276 274 274 273 273 274 275 276 276
333 328 324 319 322 321 316 318 305 292 284 278 277 280 284 287 288 288 288 288 284 281 278 275 270 267 265 265 268 273 275 275 276 278 280 277 275 275 276 277 277 277 276
336 331 329 322 318 319 317 315 307 295 287 284 285 290 294 297 300 300 300 295 293 290 285 281 277 274 276 278 281 282 283 283 283 284 284 284 282 279 278 278 279 279 278
333 331 330 324 318 316 314 309 305 301 299 300 305 308 311 315 315 317 318 314 310 303 297 289 286 285 284 287 289 289 289 288 288 289 289 289 288 287 285 284 284 283 283
325 324 323 320 314 310 307 302 302 305 307 312 315 318 320 324 321 321 320 317 311 304 299 293 290 287 286 287 288 290 292 293 293 292 292 291 291 290 289 288 288 287 287
315 315 315 314 310 305 301 298 300 304 307 309 311 313 314 317 316 315 315 312 305 304 303 299 295 293 290 289 289 292 293 294 295 296 295 293 291 289 288 289 288 287 287
307 305 305 307 304 300 299 296 297 302 306 307 307 307 307 309 309 309 308 305 302 303 301 299 297 294 290 289 288 289 291 292 292 292 292 291 290 289 289 289 288 287 286
298 295 295 298 297 296 296 293 293 298 303 305 304 302 302 302 303 304 305 302 300 300 299 298 297 295 291 289 288 287 287 288 289 289 289 288 288 287 287 287 286 286 286
291 286 287 290 292 291 291 289 289 292 296 300 301 302 302 301 300 300 301 300 300 299 298 297 297 294 292 290 288 287 287 287 287 288 288 288 288 287 286 286 286 286 285
288 283 282 284 287 287 286 284 284 286 289 292 294 296 298 298 298 299 300 300 300 298 296 296 295 292 290 287 285 284 284 285 286 286 286 286 286 286 285 285 285 286 286
282 279 279 281 283 284 284 282 282 284 286 288 287 289 291 294 295 295 298 298 298 296 295 294 291 290 287 286 285 284 283 284 285 286 286 286 286 285 286 286 286 287 288
276 274 276 277 279 281 282 281 281 282 284 287 286 284 284 287 290 292 296 297 297 295 295 294 293 291 289 288 286 286 285 284 284 285 287 287 288 288 288 288 288 289 289
272 270 272 273 276 279 279 279 280 282 284 286 286 283 280 283 285 289 293 295 295 295 296 295 295 294 292 291 289 287 286 286 284 284 286 288 290 290 290 290 290 289 287
269 270 271 272 274 276 276 276 279 282 283 286 287 286 284 284 285 288 290 291 292 294 295 294 294 293 292 291 289 288 288 288 288 288 288 289 290 291 291 292 291 287 283
269 271 271 271 272 273 275 277 280 283 284 287 288 289 287 286 287 288 289 290 292 294 294 294 294 292 291 290 289 289 290 291 292 293 292 292 292 293 293 294 292 288 283
Height
5898 5895 5896 5896 5895 5895 5895 5895 5895 5895 5895 5895 5896 5896 5897 5897 5898 5899 5899 5900 5900 5900 5901 5901 5901 5901 5902 5902 5902 5903 5903 5903 5903 5904 5905 5905 5906 5906 5907 5907 5908 5909 5909
5895 5893 5893 5892 5891 5891 5891 5891 5892 5892 5892 5893 5893 5894 5895 5896 5896 5897 5898 5898 5898 5899 5899 5899 5899 5899 5900 5900 5900 5900 5901 5901 5901 5901 5902 5902 5903 5903 5904 5905 5905 5906 5906
5891 5890 5890 5889 5888 5888 5888 5888 5888 5889 5890 5890 5891 5892 5893 5894 5894 5895 5895 5896 5896 5896 5896 5896 5896 5897 5898 5898 5898 5898 5898 5898 5898 5898 5899 5900 5900 5900 5901 5901 5901 5902 5903
5888 5887 5887 5886 5885 5885 5885 5885 5886 5886 5887 5888 5889 5890 5890 5891 5892 5892 5892 5893 5893 5893 5893 5893 5893 5894 5894 5895 5895 5895 5895 5895 5895 5896 5897 5897 5897 5897 5897 5897 5898 5898 5899
5886 5885 5884 5883 5883 5882 5882 5882 5883 5884 5885 5886 5886 5887 5888 5889 5889 5889 5889 5889 5889 5889 5889 5889 5890 5891 5891 5891 5892 5892 5892 5892 5892 5892 5893 5895 5893 5893 5894 5894 5894 5895 5895
5885 5883 5882 5881 5881 5880 5880 5880 5881 5881 5882 5883 5884 5885 5885 5885 5886 5886 5887 5887 5887 5887 5887 5887 5887 5888 5888 5888 5888 5888 5888 5888 5888 5888 5889 5891 5889 5889 5890 5890 5890 5891 5891
5884 5882 5881 5880 5879 5879 5879 5878 5878 5879 5880 5881 5881 5882 5882 5882 5883 5883 5884 5884 5884 5884 5884 5884 5884 5884 5884 5884 5884 5884 5884 5884 5883 5884 5885 5887 5885 5884 5885 5885 5886 5886 5886
5882 5881 5880 5878 5877 5877 5877 5877 5877 5877 5878 5878 5879 5879 5879 5880 5880 5881 5881 5881 5881 5881 5881 5880 5880 5880 5880 5880 5880 5880 5880 5879 5878 5878 5880 5882 5880 5880 5880 5880 5880 5880 5880
5882 5880 5878 5877 5876 5875 5875 5876 5876 5876 5876 5876 5876 5876 5877 5877 5878 5878 5878 5878 5878 5877 5877 5877 5876 5876 5876 5875 5875 5876 5876 5875 5873 5872 5875 5877 5874 5874 5874 5874 5874 5874 5874
5881 5879 5878 5876 5875 5874 5874 5874 5874 5874 5874 5873 5873 5873 5874 5874 5875 5875 5875 5874 5874 5873 5873 5872 5872 5872 5871 5871 5871 5871 5871 5870 5869 5867 5870 5870 5868 5868 5868 5868 5868 5868 5868
5880 5879 5878 5876 5875 5874 5872 5872 5871 5871 5871 5871 5871 5871 5871 5871 5872 5871 5871 5870 5870 5869 5869 5868 5868 5867 5867 5867 5867 5867 5866 5865 5863 5862 5865 5864 5863 5862 5862 5862 5862 5862 5862
5879 5879 5878 5876 5875 5873 5871 5870 5870 5870 5869 5870 5869 5869 5868 5868 5868 5868 5867 5866 5866 5865 5864 5864 5864 5863 5863 5863 5862 5861 5861 5859 5858 5856 5858 5858 5857 5857 5856 5856 5856 5855 5855
5877 5877 5877 5875 5874 5872 5869 5869 5869 5869 5868 5868 5867 5867 5866 5865 5865 5864 5863 5862 5861 5861 5860 5859 5859 5858 5858 5858 5857 5856 5855 5854 5852 5850 5851 5852 5852 5851 5850 5849 5848 5847 5847
5876 5875 5875 5873 5873 5872 5869 5869 5869 5868 5867 5866 5865 5864 5862 5861 5861 5860 5859 5858 5857 5857 5856 5855 5854 5855 5854 5852 5852 5850 5850 5849 5847 5844 5845 5845 5844 5844 5842 5841 5839 5838 5837
5875 5873 5872 5872 5871 5870 5869 5868 5867 5866 5865 5863 5862 5861 5859 5858 5857 5855 5854 5853 5852 5852 5852 5851 5850 5850 5849 5848 5847 5845 5844 5843 5841 5838 5837 5837 5836 5834 5833 5831 5830 5829 5827
5873 5872 5871 5870 5869 5869 5868 5866 5865 5863 5862 5861 5860 5859 5857 5856 5854 5853 5852 5850 5849 5848 5848 5846 5846 5845 5844 5843 5841 5839 5838 5836 5834 5831 5829 5828 5826 5825 5823 5821 5820 5818 5816
5871 5870 5869 5869 5868 5867 5866 5864 5863 5861 5860 5859 5858 5856 5855 5854 5851 5850 5850 5848 5846 5845 5844 5842 5841 5840 5838 5837 5835 5833 5831 5828 5826 5824 5821 5818 5816 5814 5812 5810 5808 5806 5804
5869 5868 5866 5866 5866 5864 5864 5862 5861 5859 5857 5856 5855 5853 5852 5850 5849 5847 5846 5844 5842 5841 5839 5837 5835 5834 5831 5829 5827 5825 5822 5819 5817 5814 5812 5809 5805 5802 5799 5797 5794 5792 5790
5866 5865 5863 5863 5862 5861 5860 5859 5858 5857 5855 5853 5852 5850 5848 5846 5844 5842 5841 5838 5836 5834 5832 5829 5828 5825 5823 5820 5818 5815 5812 5809 5806 5803 5800 5797 5794 5790 5786 5783 5780 5777 5774
5861 5861 5859 5858 5858 5857 5856 5854 5853 5852 5851 5849 5848 5846 5843 5841 5838 5836 5835 5831 5828 5825 5823 5821 5818 5815 5812 5809 5806 5804 5801 5797 5793 5790 5786 5783 5779 5776 5772 5768 5764 5761 5759
5855 5855 5854 5853 5853 5852 5851 5849 5848 5847 5846 5845 5842 5840 5838 5835 5832 5829 5827 5824 5820 5816 5813 5811 5808 5804 5801 5797 5794 5792 5789 5785 5780 5776 5772 5768 5765 5761 5757 5753 5748 5744 5741
5849 5849 5848 5847 5846 5845 5844 5843 5842 5841 5839 5838 5836 5833 5830 5827 5824 5821 5818 5815 5811 5807 5804 5801 5797 5793 5788 5783 5780 5777 5774 5772 5766 5761 5756 5752 5748 5745 5740 5735 5731 5727 5723
5841 5841 5841 5840 5838 5837 5836 5835 5834 5833 5831 5830 5828 5825 5822 5818 5816 5812 5809 5805 5801 5796 5792 5788 5784 5780 5776 5771 5766 5763 5759 5756 5753 5747 5740 5735 5731 5728 5723 5718 5713 5709 5705
5833 5834 5833 5832 5831 5830 5828 5827 5826 5824 5822 5820 5818 5815 5811 5809 5806 5803 5800 5795 5790 5785 5781 5776 5772 5768 5764 5759 5754 5749 5745 5741 5737 5734 5728 5721 5716 5712 5707 5702 5697 5692 5689
5824 5826 5826 5825 5823 5821 5820 5819 5817 5815 5813 5810 5807 5804 5801 5799 5796 5793 5789 5784 5779 5775 5771 5766 5761 5756 5751 5746 5740 5734 5729 5724 5719 5716 5713 5707 5702 5696 5691 5686 5681 5678 5675
5815 5817 5817 5816 5814 5813 5812 5810 5808 5806 5802 5799 5796 5793 5789 5788 5786 5782 5778 5773 5769 5764 5759 5755 5749 5744 5738 5732 5726 5720 5714 5709 5703 5698 5695 5690 5685 5679 5674 5669 5665 5662 5659